Location: Newark
(25.4800°N, 85.7200°E)
Time: 08:56:11
(UTC+00:00)

Explorer 7 - Visible Passes

Search period start: 26 August 2019 00:00
Search period end: 05 September 2019 00:00
Orbit: 485 x 680 km, 50.3° (Epoch: 25 August)

Date Brightness Start Highest point End Pass type
(mag) Time Alt. Az. Time Alt. Az. Time Alt. Az.
28 Aug 9.8 22:31:31 10° SSE 22:34:09 15° SE 22:36:49 10° E visible
29 Aug 9.0 22:34:58 10° S 22:39:00 27° SE 22:43:06 10° ENE visible
30 Aug 8.0 22:40:25 17° SSW 22:43:55 48° SE 22:48:39 10° NE visible
31 Aug 7.2 22:45:58 24° SW 22:48:54 88° SE 22:53:50 10° NE visible
01 Sep 9.7 21:15:03 16° ESE 21:15:03 16° ESE 21:16:53 10° E visible
01 Sep 7.5 22:51:24 26° WSW 22:53:57 52° NW 22:58:45 10° NNE visible
02 Sep 9.3 21:20:24 24° E 21:20:24 24° E 21:22:51 10° ENE visible
02 Sep 8.3 22:56:45 21° W 22:59:06 31° NW 23:03:28 10° NNE visible
03 Sep 8.9 21:25:39 30° ENE 21:25:39 30° ENE 21:28:16 10° NE visible
03 Sep 8.9 23:02:00 14° WNW 23:04:21 20° NW 23:07:55 10° N visible
04 Sep 8.9 21:30:48 30° NE 21:30:48 30° NE 21:33:21 10° NE visible
04 Sep 9.4 23:07:30 10° WNW 23:09:42 13° NNW 23:11:55 10° N visible
